Location: Luxembourg
(49.6117°N, 6.1300°E)
Time: 02:35:51
(UTC+02:00)

Envisat - Pass Details

Date: 26 January 2019
Orbit: 764 x 766 km, 98.1° (Epoch: 13 October)

Event Time Altitude Azimuth Distance (km) Brightness Sun altitude
Rises 07:20:01 0° 23° (NNE) 3,244 6.3 -9.2°
Reaches altitude 10° 07:22:41 10° 36° (NE) 2,312 5.7 -8.8°
Maximum altitude 07:26:57 27° 93° (E) 1,458 5.4 -8.1°
Drops below altitude 10° 07:31:12 10° 150° (SSE) 2,297 6.3 -7.5°
Sets 07:33:50 0° 162° (SSE) 3,218 6.8 -7.1°
